Dewpoint
55 57 55 56 55 56 54 54 53 53 53 52 52 52 53 53 52 52 46 43 48 55 48 32 30 33 33 31 27 20 17 14 20 29 28 21 31 29 44 46 46 45 52 58 65
56 57 56 57 56 56 56 55 55 54 53 52 52 52 53 52 49 49 51 57 57 57 28 28 28 32 30 29 26 21 18 15 14 21 33 32 35 39 44 45 44 46 57 62 64
56 56 55 56 56 56 56 55 55 54 52 52 51 51 52 51 47 39 55 57 58 53 29 28 27 29 28 24 23 19 16 10 10 14 12 26 26 37 44 43 44 49 56 59 62
56 54 55 55 56 55 55 55 54 53 52 52 51 51 51 50 28 32 59 58 60 42 29 28 28 27 26 23 22 14 13 7 11 15 10 25 17 40 34 39 46 52 56 56 58
55 54 54 54 54 55 55 55 53 52 52 51 51 51 50 47 40 45 62 60 49 33 29 28 27 26 24 24 14 12 8 11 9 6 8 8 20 33 22 43 44 49 53 53 55
53 53 53 53 54 55 53 54 52 51 51 50 50 50 47 37 32 46 52 44 38 33 31 29 27 27 25 16 17 15 7 8 14 7 5 8 13 15 22 46 43 47 50 50 51
54 53 53 54 54 53 54 53 52 51 50 49 49 49 49 38 33 39 43 38 39 34 32 32 29 25 24 19 13 11 4 8 9 13 12 16 13 13 33 45 43 42 44 43 44
54 53 53 53 53 53 53 52 51 51 50 50 51 49 43 39 41 37 31 25 34 34 31 30 33 30 21 20 17 11 13 6 9 16 18 9 6 17 40 45 45 45 46 46 45
53 53 53 53 53 52 52 51 51 50 50 51 48 48 35 37 30 22 21 22 25 30 31 24 26 21 16 14 11 13 9 12 14 18 17 14 19 31 32 44 41 42 42 44 46
53 53 53 55 54 52 51 51 50 51 50 49 49 41 34 24 29 22 23 24 27 30 28 26 24 19 19 10 8 7 10 21 12 22 30 28 35 38 40 40 42 41 43 44 44
54 55 55 55 54 52 50 48 44 42 48 28 30 30 34 30 28 20 23 27 27 26 23 25 21 16 17 17 12 13 12 12 16 24 32 34 35 36 41 42 40 41 41 42 42
55 55 55 55 54 52 50 48 39 40 38 42 41 38 37 34 23 22 30 25 25 22 25 22 19 22 27 26 23 21 20 22 26 30 33 33 30 32 35 38 41 40 40 41 42
54 55 55 54 54 52 48 44 48 46 38 28 37 34 29 29 23 24 29 29 25 22 22 21 22 27 28 26 26 27 21 21 25 31 32 31 30 31 34 39 40 41 41 41 42
54 54 54 53 50 49 45 44 51 43 24 23 23 22 27 28 25 26 28 27 27 23 25 28 30 27 26 25 26 24 28 26 29 28 26 28 27 29 33 37 39 40 40 41 41
53 53 53 51 48 52 49 56 51 38 16 21 23 26 25 27 22 25 33 28 24 26 27 27 28 26 25 26 29 27 28 26 24 22 23 26 27 27 34 35 37 39 40 41 41
53 53 53 52 49 49 55 46 37 31 18 22 25 23 25 27 27 28 31 33 30 30 29 28 29 28 27 29 28 30 30 30 30 27 22 24 25 26 31 33 36 37 39 40 40
53 54 52 51 52 57 50 36 28 26 28 22 23 25 25 27 29 29 28 28 26 24 26 26 26 27 29 28 29 30 28 25 23 21 23 28 26 26 31 34 37 37 38 40 40
53 53 52 52 53 53 41 30 25 30 26 25 26 26 26 29 29 29 28 26 28 29 28 24 22 25 26 27 25 26 28 25 19 21 23 27 25 28 31 33 37 37 38 39 40
53 51 51 57 54 49 37 27 30 31 26 26 27 25 27 29 28 29 28 26 29 29 27 25 24 26 26 28 29 26 24 27 26 25 23 25 27 30 35 35 36 36 37 39 37
51 51 49 55 49 44 37 33 38 39 32 28 24 27 26 27 28 29 30 33 31 33 31 29 21 26 26 30 29 26 28 22 24 17 17 22 25 27 31 34 35 36 36 37 37
44 35 39 54 39 35 29 34 40 39 35 27 27 28 28 26 30 31 30 34 36 35 32 29 25 24 28 26 25 26 25 27 27 24 18 17 23 29 31 34 33 35 36 36 36
38 30 46 39 30 36 30 39 41 31 35 36 33 30 28 34 34 33 32 34 38 37 28 31 28 24 23 28 31 27 26 23 18 18 24 20 19 29 31 32 35 36 36 36 35
41 48 53 38 27 28 32 38 38 31 33 34 34 35 37 36 33 35 36 37 33 34 31 30 27 25 24 24 26 25 30 28 26 26 25 19 19 32 34 35 35 35 36 35 35
45 41 44 41 36 28 29 31 34 36 35 34 35 36 36 36 38 36 36 37 35 36 42 36 29 23 21 22 25 23 28 27 24 21 22 22 19 31 33 34 36 36 35 35 33
42 40 42 35 37 33 31 35 33 33 34 34 33 34 34 33 34 35 37 34 35 40 39 30 26 27 29 30 27 23 22 28 24 24 22 22 23 24 33 34 36 36 35 34 33
45 38 35 35 41 40 37 34 34 34 34 32 32 37 35 33 32 34 34 30 27 38 36 32 26 26 28 31 29 25 24 24 26 26 27 27 26 34 35 36 36 35 35 34 32
48 46 38 36 36 38 37 38 36 36 39 38 36 36 34 38 39 39 38 38 37 36 32 28 28 20 13 27 22 17 22 24 25 26 27 26 27 35 35 36 36 35 34 33 31
Lifted_Index
6 6 5 5 5 5 5 5 6 6 6 6 6 6 6 6 6 5 5 4 4 4 4 5 5 5 5 5 4 3 2 0 -1 -1 -0 0 -1 -2 -2 -3 -3 -3 -4 -5 -6
6 6 5 5 5 5 5 5 6 6 6 6 6 7 6 6 5 5 4 4 4 4 4 5 5 5 5 4 3 3 2 1 -0 -0 -0 0 -1 -3 -3 -3 -2 -3 -4 -6 -6
6 6 6 5 5 5 5 5 6 6 6 6 7 7 6 5 4 3 3 3 3 3 4 5 5 5 4 3 3 2 2 1 0 0 0 -0 -1 -3 -3 -2 -2 -3 -5 -6 -6
6 6 6 6 6 6 5 6 6 6 6 7 7 6 5 4 3 2 1 1 2 3 3 4 4 4 3 3 2 2 2 1 1 0 0 -0 -1 -2 -1 -1 -2 -3 -5 -5 -4
7 6 6 6 6 6 6 6 6 6 7 7 6 6 4 3 2 1 1 1 2 2 3 3 2 2 2 2 2 2 1 1 0 0 0 1 1 1 0 -1 -2 -3 -4 -4 -3
7 6 6 6 6 6 6 6 7 7 7 7 6 5 4 2 1 1 1 2 2 2 2 2 1 1 1 1 2 1 1 1 1 1 1 2 2 2 1 -0 -2 -2 -3 -2 -2
6 6 6 6 6 6 6 6 7 7 7 6 5 4 3 2 1 1 2 2 2 2 2 1 1 1 1 1 1 1 1 1 1 2 2 2 3 3 1 -1 -2 -2 -2 -2 -1
6 5 6 6 6 6 6 7 7 7 6 5 4 3 2 1 1 1 2 2 2 1 1 1 1 1 1 1 1 1 1 2 2 2 3 3 3 2 1 -1 -2 -1 -1 -1 -1
5 5 5 6 6 6 6 7 7 6 5 4 3 2 1 1 1 1 1 1 1 1 1 1 1 1 1 1 1 1 1 1 2 2 3 3 2 2 1 -1 -2 -1 -1 -1 -1
5 5 5 5 6 6 6 6 5 5 4 3 2 1 1 1 1 2 1 1 1 1 1 1 1 1 1 1 1 1 1 1 1 2 2 2 2 2 1 -0 -1 -1 -1 -1 -1
5 5 5 5 6 6 5 4 3 2 2 2 1 1 1 1 1 1 1 1 0 0 0 0 0 0 0 1 1 1 1 1 1 2 2 2 2 2 2 1 1 0 -1 -1 -1
5 5 5 5 6 5 3 1 -0 -0 1 1 1 0 1 1 1 1 1 1 0 0 0 0 0 0 0 0 1 1 1 0 1 1 2 2 2 2 2 2 2 1 0 -1 -1
5 5 5 5 5 4 1 -1 -2 -1 -0 1 1 1 1 1 1 1 1 0 0 0 0 0 0 0 0 0 0 1 1 1 1 1 1 1 1 2 2 2 1 1 0 -0 -0
5 5 5 5 3 2 -0 -2 -2 -1 0 1 1 1 1 1 1 1 0 0 0 0 0 0 0 0 0 0 0 1 1 1 0 0 0 1 1 1 1 1 1 0 -0 0 1
5 5 4 3 2 -0 -1 -2 -2 -1 0 1 1 1 1 1 1 1 1 0 0 0 0 0 0 0 0 1 1 1 1 1 0 0 0 1 1 1 1 1 1 0 1 1 2
4 4 3 1 -0 -2 -2 -1 -0 0 1 2 2 1 1 1 1 1 1 1 0 1 1 1 1 1 1 1 1 1 1 1 1 0 1 1 2 2 2 1 1 1 1 2 2
3 3 2 -0 -2 -2 -1 1 1 1 2 2 2 2 1 1 1 1 1 1 1 1 1 1 1 1 1 1 1 1 1 1 0 0 1 1 2 2 1 1 1 1 1 2 2
3 2 1 -1 -2 -1 1 1 1 1 2 2 2 2 1 1 1 1 1 1 1 1 1 1 1 1 1 1 1 1 1 1 0 0 1 1 2 2 2 2 2 2 2 2 2
2 1 0 -1 -0 1 2 1 1 1 2 2 2 2 1 1 1 1 1 1 1 1 1 1 1 1 1 1 1 2 2 1 1 1 1 1 2 2 2 2 2 2 2 2 2
2 1 -0 -0 1 2 2 1 0 1 1 2 2 2 1 1 1 1 1 1 1 0 0 1 1 1 1 1 2 2 2 2 2 1 1 1 1 2 2 2 2 2 2 2 2
1 1 1 1 2 3 2 1 0 0 1 2 2 1 1 1 1 1 1 1 1 0 0 0 1 1 1 2 2 2 3 3 2 2 1 1 1 2 3 3 2 2 2 3 3
2 1 1 2 3 3 2 1 0 1 1 1 1 1 1 1 1 1 1 1 1 1 1 1 1 2 2 2 2 3 3 3 3 2 2 1 2 3 3 3 3 3 3 3 3
3 1 1 2 4 4 3 1 1 1 1 1 1 1 1 1 1 1 1 1 2 2 2 1 2 2 2 2 3 3 3 3 3 2 2 1 2 3 3 3 3 3 3 4 4
2 2 1 3 4 4 3 1 1 1 1 1 1 0 0 0 1 1 1 1 1 2 2 2 2 2 2 2 3 3 3 3 3 3 2 2 3 4 4 3 3 3 3 3 4
3 2 2 3 4 4 3 2 1 1 1 1 1 1 0 0 0 1 1 1 2 2 3 2 2 3 3 3 3 3 3 3 3 3 2 2 3 4 4 4 3 3 3 3 3
3 3 3 3 4 4 3 2 1 1 1 1 1 1 1 1 1 1 1 2 2 3 3 3 3 3 3 3 3 3 3 3 3 3 3 3 3 4 4 4 4 3 3 3 3
2 2 3 4 4 3 3 2 1 1 1 1 1 1 1 1 1 2 2 2 3 3 4 3 3 3 2 3 3 3 3 3 3 3 3 3 4 4 4 4 4 4 3 3 3